SPROUT (39770 NORAD) Tracking and Keplerian Element Data

This shows tracking and keplerian element data for the satellite.

Feedback or suggestion? Click here.




ElementValue
Catalog39770
NameSPROUT
Epoch Orbit26638
Epoch Day112.84968025
Epoch Year2019
RAAN216.5347
Inclination97.8786
Eccentricity0.000783
Argument of Perigee274.018
Mean Anonmoly86.015
Mean Motion14.87264768
Decay Rate5.28E-06
L11 39770U 14029E 19112.84968025 .00000528 00000-0 64723-4 0 9999
L22 39770 97.8786 216.5347 0007830 274.0180 86.0150 14.87264768266389

Live tracking and technical data element details for SPROUT (NORAD 39770). SPROUT can be tracked NOW for your location showing map with azimuth and elevation plus other details from your city location.

Track the satellite on the map from your city or location and see movement details for azimuth, elevation, latitude, longitude, range, height, and movement on the map or in text.







IsCatalogInMostPopularTable: catalog: 39770, numindb: 180
Update: records affected: 1



GetName: 39770 SPROUT

Hit Count: updated at: Tue, 23 Apr 2019 06:38:37 GMT